| time (UTC) | temp F | wind direction | speed MPH | gust MPH | rain 1hr in | rain 24hr in | rain mn in | humidity % | barometer mb |
| 20260507223622 | 67 | 0.0 | 0.0 | 0.00 | 0.00 | 0.00 | 64 | 1010.8 | |
| 20260507205559 | 68 | 0.0 | 0.0 | 0.00 | 0.00 | 0.00 | 59 | 1011.0 | |
| 20260507203555 | 69 | 0.0 | 0.0 | 0.00 | 0.00 | 0.00 | 57 | 1010.4 | |
| 20260507201550 | 70 | 0.0 | 0.0 | 0.00 | 0.00 | 0.00 | 56 | 1010.3 | |
| 20260507195545 | 70 | 0.0 | 0.0 | 0.00 | 0.00 | 0.00 | 55 | 1010.3 | |
| 20260507193541 | 70 | 0.0 | 0.0 | 0.00 | 0.00 | 0.00 | 55 | 1010.0 | |
| 20260507191536 | 70 | 0.0 | 0.0 | 0.00 | 0.00 | 0.00 | 55 | 1009.9 | |
| 20260507185532 | 70 | 0.0 | 0.0 | 0.00 | 0.00 | 0.00 | 55 | 1009.7 | |
| 20260507181523 | 71 | 0.0 | 0.0 | 0.00 | 0.00 | 0.00 | 53 | 1009.4 | |
| 20260507175518 | 71 | 0.0 | 0.0 | 0.00 | 0.00 | 0.00 | 53 | 1009.4 | |
| 20260507173514 | 71 | 0.0 | 0.0 | 0.00 | 0.00 | 0.00 | 52 | 1009.7 | |
| 20260507171510 | 71 | 0.0 | 0.0 | 0.00 | 0.00 | 0.00 | 52 | 1009.6 | |
| 20260507165505 | 72 | 0.0 | 0.0 | 0.00 | 0.00 | 0.00 | 51 | 1008.8 | |
| 20260507163501 | 73 | 0.0 | 0.0 | 0.00 | 0.00 | 0.00 | 49 | 1008.4 | |
| 20260507161456 | 74 | 0.0 | 0.0 | 0.00 | 0.00 | 0.00 | 49 | 1008.4 | |
| 20260507155451 | 76 | 0.0 | 0.0 | 0.00 | 0.00 | 0.00 | 47 | 1008.4 | |
| 20260507153447 | 75 | 0.0 | 0.0 | 0.00 | 0.00 | 0.00 | 47 | 1008.6 | |
| 20260507151442 | 80 | 0.0 | 0.0 | 0.00 | 0.00 | 0.00 | 45 | 1008.4 | |
| 20260507145438 | 79 | 0.0 | 0.0 | 0.00 | 0.00 | 0.00 | 45 | 1008.7 | |
| 20260507141421 | 77 | 0.0 | 0.0 | 0.00 | 0.00 | 0.00 | 45 | 1009.5 | |
| 20260507135416 | 78 | 0.0 | 0.0 | 0.00 | 0.00 | 0.00 | 44 | 1009.7 | |
| 20260507133412 | 80 | 0.0 | 0.0 | 0.00 | 0.00 | 0.00 | 43 | 1010.2 | |
| 20260507131407 | 81 | 0.0 | 0.0 | 0.00 | 0.00 | 0.00 | 41 | 1010.3 | |
| 20260507125403 | 82 | 0.0 | 0.0 | 0.00 | 0.00 | 0.00 | 41 | 1010.3 | |
| 20260507123400 | 82 | 0.0 | 0.0 | 0.00 | 0.00 | 0.00 | 40 | 1010.2 | |
| 20260507121357 | 81 | 0.0 | 0.0 | 0.00 | 0.00 | 0.00 | 40 | 1010.5 | |
| 20260507115353 | 83 | 0.0 | 0.0 | 0.00 | 0.00 | 0.00 | 39 | 1010.7 | |
| 20260507113350 | 84 | 0.0 | 0.0 | 0.00 | 0.00 | 0.00 | 39 | 1010.6 | |
| 20260507111346 | 84 | 0.0 | 0.0 | 0.00 | 0.00 | 0.00 | 39 | 1010.6 | |
| 20260507105343 | 82 | 0.0 | 0.0 | 0.00 | 0.00 | 0.00 | 40 | 1010.5 | |
| 20260507103339 | 80 | 0.0 | 0.0 | 0.00 | 0.00 | 0.00 | 42 | 1010.8 | |
| 20260507102630 | 80 | 0.0 | 0.0 | 0.00 | 0.00 | 0.00 | 43 | 1010.8 | |
| 20260507100626 | 80 | 0.0 | 0.0 | 0.00 | 0.00 | 0.00 | 44 | 1010.8 | |
| 20260507094622 | 80 | 0.0 | 0.0 | 0.00 | 0.00 | 0.00 | 46 | 1010.8 | |
| 20260507092618 | 78 | 0.0 | 0.0 | 0.00 | 0.00 | 0.00 | 50 | 1011.1 | |
| 20260507090614 | 72 | 0.0 | 0.0 | 0.00 | 0.00 | 0.00 | 57 | 1011.3 | |
| 20260507084610 | 70 | 0.0 | 0.0 | 0.00 | 0.00 | 0.00 | 58 | 1011.7 | |
| 20260507082606 | 70 | 0.0 | 0.0 | 0.00 | 0.00 | 0.00 | 59 | 1012.0 | |
| 20260507080602 | 69 | 0.0 | 0.0 | 0.00 | 0.00 | 0.00 | 60 | 1012.5 | |
| 20260507072554 | 68 | 0.0 | 0.0 | 0.00 | 0.00 | 0.00 | 63 | 1013.2 | |
| 20260507070550 | 68 | 0.0 | 0.0 | 0.00 | 0.00 | 0.00 | 64 | 1013.2 | |
| 20260507064546 | 68 | 0.0 | 0.0 | 0.00 | 0.00 | 0.00 | 65 | 1013.8 | |
| 20260507062542 | 68 | 0.0 | 0.0 | 0.00 | 0.00 | 0.00 | 66 | 1014.0 | |
| 20260507060538 | 67 | 0.0 | 0.0 | 0.00 | 0.00 | 0.00 | 67 | 1014.1 | |
| 20260507054534 | 66 | 0.0 | 0.0 | 0.00 | 0.00 | 0.00 | 68 | 1013.8 | |
| 20260507052530 | 65 | 0.0 | 0.0 | 0.00 | 0.00 | 0.00 | 68 | 1014.0 | |
| 20260507050526 | 64 | 0.0 | 0.0 | 0.00 | 0.00 | 0.00 | 69 | 1013.9 | |
| 20260507044522 | 65 | 0.0 | 0.0 | 0.00 | 0.00 | 0.00 | 69 | 1014.3 | |
| 20260507040514 | 64 | 0.0 | 0.0 | 0.00 | 0.00 | 0.00 | 68 | 1014.3 | |
| 20260507034510 | 64 | 0.0 | 0.0 | 0.00 | 0.00 | 0.00 | 68 | 1014.3 | |
| 20260507032506 | 64 | 0.0 | 0.0 | 0.00 | 0.00 | 0.00 | 68 | 1014.1 | |
| 20260507024459 | 65 | 0.0 | 0.0 | 0.00 | 0.00 | 0.00 | 68 | 1013.9 | |
| 20260507022455 | 64 | 0.0 | 0.0 | 0.00 | 0.00 | 0.00 | 69 | 1014.2 | |
| 20260507020451 | 64 | 0.0 | 0.0 | 0.00 | 0.00 | 0.00 | 67 | 1014.1 | |
| 20260507014447 | 65 | 0.0 | 0.0 | 0.00 | 0.00 | 0.00 | 66 | 1014.1 | |
| 20260507012443 | 65 | 0.0 | 0.0 | 0.00 | 0.00 | 0.00 | 67 | 1014.4 | |
| 20260507010439 | 65 | 0.0 | 0.0 | 0.00 | 0.00 | 0.00 | 67 | 1014.5 | |
| 20260507004435 | 65 | 0.0 | 0.0 | 0.00 | 0.00 | 0.00 | 65 | 1014.4 | |
| 20260507000427 | 66 | 0.0 | 0.0 | 0.00 | 0.00 | 0.00 | 62 | 1014.4 | |
| 20260506234423 | 66 | 0.0 | 0.0 | 0.00 | 0.00 | 0.00 | 63 | 1014.5 | |
| 20260506232419 | 66 | 0.0 | 0.0 | 0.00 | 0.00 | 0.00 | 64 | 1014.4 | |
| 20260506230415 | 66 | 0.0 | 0.0 | 0.00 | 0.00 | 0.00 | 65 | 1014.3 |